Dewitt Spain (M01)
Memphis, TN
Field Elevation: 224
Lat: 35°12.04N  Long: 90°03.24W
CTAF/Unicom Freq: 122.7000
   
     For Weather-by-Phone, call 901-354-9296
Weather Advisories
10/21/2014 10:17 Z
Altimeter 30.05" Hg
Wind 340° @ 0 KT
Gusts --
Visibility 3/4 SM
Ceiling --
Temperature 11° C (52° F)
Dewpoint 11° C (52° F)
Relative Humidity 100%
Density Altitude --
Condensation Altitude --
  Wind and Runways
Indicated Runway = 35
History
 
 
More Info
All DigiWx sites map
NOAA Forecast
 
Airport IQ 5010
(2M8) Charles W. Baker Airport
(3M3) Collegedale Muni
 
about DigiWx
 
FAA Disclaimer: The data displayed is for advisory purposes only and is not to be used for flight planning or operations. For official data, please call 901-354-9296 to hear the current automated AWOS voice message.
  METAR M01 211017Z AUTO 34000KT 3/4SM 11/11 A3005